Weather in Chernaya

Russia / Nenets Autonomous Okrug     68°35′15″N   56°34′53″E
temp.,
°C
wind,
m/s
gust,
m/s
humid.,
%
clouds,
%
prec.,
mm/h
press.,
hPa
HPBL,
m
1 march, mon
mon100:00−15ssw7119393 0.0 1006214
03:00−13ssw8139296 0.1 1003259
06:00−11s91592100 0.1 999288
09:00−10s101692100 0.5 995438
12:00−8s101692100 0.5 990627
15:00−7s101692100 1.3 986614
18:00−7s91593100 1.0 982588
21:00−5sw3796100 1.7 982200
2 march, tue
tue200:00−3w51097100 0.6 981292
03:00−2w5109799 1.1 982315
06:00−3wsw599599 0.4 983237
09:00−3wsw5895100 0.8 984252
12:00−4sw479499 0.1 985175
15:00−5sw469499 0.2 987138
18:00−7wsw3396100 0.2 98850
21:00−7wnw129698 0.8 98935
3 march, wed
wed300:00−10nne349794 0.3 98984
03:00−12nne459796 0.6 990100
06:00−12nne3496100 0.3 99097
09:00−12nne3596100 0.8 991158
12:00−11nne239699 0.3 991132
15:00−11ene2296100 0.6 99245
18:00−12ene3496100 0.4 99280
21:00−14ene5896100 0.8 993239
4 march, thu
thu400:00−16ne589699 0.3 993272
03:00−18ne5998100 0.3 994245
06:00−18ne61097100 0.1 994294
09:00−18ne61097100 0.1 994362
12:00−17ne5994100 0.1 995509
15:00−17ne5995100 0.1 996435
18:00−18nne51097100 0.1 996323
21:00−19nne5998100 0.2 996278
5 march, fri
fri500:00−19n5998100 0.1 996298
03:00−18nne5997100 0.3 996316
06:00−19nne5997100 0.1 997343
09:00−18nne6996100 0.4 997490
12:00−18nne6895100 0.3 998562
15:00−18n5896100 0.5 999409
18:00−19n5998100 0.2 1000278
21:00−19n5997100 0.4 1001310